Showing default

AETHER-2, 58299

Orbit data source: Space-Track

AETHER-2, 58299 is a payload satellite owned by Kepler Comms (CA) in SSO that was launched on Sat, 11 Nov 2023 UTC via an FALCON 9 launch vehicle from the Air Force Western Test Range (AFWTR). Payload-class satellites include a variety of spacecraft equipped with specific instruments for various scientific and technological missions. These include communications satellites like Starlink; space stations such as the ISS; scientific satellites like the Hubble; Earth observation satellites from companies like Planet Labs, Umbra, and HawkEye 360; GPS; miniature CubeSats for education and research; and military/defense satellites.

Loading next visibility...
Identifier
58299, 2023-174AV
Orbit
SSO
Country
Flag of CACA
Related business
Manufacturer
KEPLER/UTIAS
Mission
Operational Commercial Communications
Bus & Motor
AETHER, Unknown motor
Mass
125 kg wet, 125 kg dry
Launch date (UTC)
2023-11-11 (3 years ago)
Launch vehicle
FALCON 9
Launch site
Air Force Western Test Range (AFWTR)
Object type
Payload
Rocket body
Debris
Shape & HBR
Box + 2 Pan, 3.6 m
Radar Cross Section
0.583 m², Large (>1 m²)

Expand to show TLE details & history
Last TLE update: 2 days ago

TLE from 2 days ago
0 AETHER-2
1 58299U 23174AV  26171.19815966  .00005170  00000-0  15655-3 0  9990
2 58299  97.3899 254.4692 0008359 131.8740 228.3218 15.34587703145695
Epoch: 2026-06-20T04:45Z
TLE epoch observation values (Epoch: 2026-06-20T04:45:20.994Z)
Latitude
0.00001°
Longitude
-85.2845°
Altitude
469.062 km
Speed
7.63 km/s
True Right ascension
16h 57m 52s
True Declination
0° 00' 00"
Sunlit
Object was in full shadow at epoch
Visualization orbit readout
Latitude
Unknown
Longitude
Unknown
Altitude
Unknown
Speed
Unknown
Apparent Right ascension
Unknown
Apparent Declination
Unknown
Sunlit
N/A
Visualization observer readout
Local Sidereal Time
21:37:32
Azimuth
Unknown
Elevation
Unknown
Doppler factor
Unknown
Orbital elements
Apogee altitude
464.806 km
Perigee altitude
453.376 km
Semi-major axis
6,837.228 km
Eccentricity
0.00084
Inclination
97.3899°
RAAN
254.4692°
Arg. of periapsis
131.874°
True anomaly
228.25031°
Mean anomaly
228.3218°
Eccentric anomaly
228.28605°
Mean motion
3.83904 °/min
Orbital period
93.77 mins
BSTAR
0.00015655
Loading maneuver chart data...
Computing Atmospheric mass density...

Documentation

Showing up to 5 results
|